Time,TemperatureF,DewpointF,PressureIn,WindDirection,WindDirectionDegrees,WindSpeedMPH,WindSpeedGustMPH,Humidity,HourlyPrecipIn,Conditions,Clouds,dailyrainin,SoftwareType,DateUTC
2013-12-19 00:13:00,27.5,23.0,30.18,SSE,161,0.0,-999.0,84,-99.99,,,0.00,weatherlink.com 1.10,2013-12-19 05:13:00,
2013-12-19 00:28:00,27.3,23.0,30.18,SSE,161,0.0,-999.0,84,-99.99,,,0.00,weatherlink.com 1.10,2013-12-19 05:28:00,
2013-12-19 00:43:00,27.3,23.0,30.18,SSE,161,0.0,-999.0,84,-99.99,,,0.00,weatherlink.com 1.10,2013-12-19 05:43:00,
2013-12-19 00:58:00,27.5,24.0,30.17,SSE,161,0.0,-999.0,85,-99.99,,,0.00,weatherlink.com 1.10,2013-12-19 05:58:00,
2013-12-19 01:13:00,27.5,24.0,30.17,SSE,161,0.0,-999.0,85,-99.99,,,0.00,weatherlink.com 1.10,2013-12-19 06:13:00,
2013-12-19 01:28:00,27.3,24.0,30.17,SSE,161,0.0,-999.0,86,-99.99,,,0.00,weatherlink.com 1.10,2013-12-19 06:28:00,
2013-12-19 01:43:00,27.2,24.0,30.17,SSE,161,0.0,-999.0,87,-99.99,,,0.00,weatherlink.com 1.10,2013-12-19 06:43:00,
2013-12-19 01:58:00,27.2,24.0,30.17,SSE,161,0.0,-999.0,88,-99.99,,,0.00,weatherlink.com 1.10,2013-12-19 06:58:00,
2013-12-19 02:13:00,27.2,24.0,30.17,SSE,161,0.0,-999.0,88,-99.99,,,0.00,weatherlink.com 1.10,2013-12-19 07:13:00,
2013-12-19 02:28:00,27.0,24.0,30.18,SSE,161,0.0,-999.0,88,-99.99,,,0.00,weatherlink.com 1.10,2013-12-19 07:28:00,
2013-12-19 02:43:00,27.0,24.0,30.18,SSE,161,0.0,-999.0,88,-99.99,,,0.00,weatherlink.com 1.10,2013-12-19 07:43:00,
2013-12-19 02:58:00,26.9,24.0,30.19,SSE,161,0.0,-999.0,89,-99.99,,,0.00,weatherlink.com 1.10,2013-12-19 07:58:00,
2013-12-19 03:13:00,26.7,24.0,30.19,SSE,161,0.0,-999.0,89,-99.99,,,0.00,weatherlink.com 1.10,2013-12-19 08:13:00,
2013-12-19 03:28:00,26.7,24.0,30.18,SSE,161,0.0,-999.0,89,-99.99,,,0.00,weatherlink.com 1.10,2013-12-19 08:28:00,
2013-12-19 03:58:00,26.9,24.0,30.18,SSE,161,0.0,-999.0,90,-99.99,,,0.00,weatherlink.com 1.10,2013-12-19 08:58:00,
2013-12-19 04:13:00,26.9,24.0,30.18,SSE,161,0.0,-999.0,90,-99.99,,,0.00,weatherlink.com 1.10,2013-12-19 09:13:00,
2013-12-19 04:28:00,26.9,24.0,30.18,SSE,161,0.0,-999.0,90,-99.99,,,0.00,weatherlink.com 1.10,2013-12-19 09:28:00,
2013-12-19 04:43:00,26.7,24.0,30.18,SSE,161,0.0,-999.0,90,-99.99,,,0.00,weatherlink.com 1.10,2013-12-19 09:43:00,
2013-12-19 04:58:00,26.7,24.0,30.18,SSE,161,0.0,-999.0,90,-99.99,,,0.00,weatherlink.com 1.10,2013-12-19 09:58:00,
2013-12-19 05:13:00,26.7,24.0,30.18,SSE,161,0.0,-999.0,90,-99.99,,,0.00,weatherlink.com 1.10,2013-12-19 10:13:00,
2013-12-19 05:28:00,26.7,24.0,30.18,SSE,161,0.0,-999.0,90,-99.99,,,0.00,weatherlink.com 1.10,2013-12-19 10:28:00,
2013-12-19 05:43:00,26.6,24.0,30.19,SSE,161,0.0,-999.0,90,-99.99,,,0.00,weatherlink.com 1.10,2013-12-19 10:43:00,
2013-12-19 05:58:00,26.6,24.0,30.19,SSE,161,0.0,-999.0,91,-99.99,,,0.00,weatherlink.com 1.10,2013-12-19 10:58:00,
2013-12-19 06:13:00,26.9,25.0,30.19,SSE,161,0.0,-999.0,91,-99.99,,,0.00,weatherlink.com 1.10,2013-12-19 11:13:00,
2013-12-19 06:28:00,26.7,24.0,30.19,SSE,161,0.0,-999.0,90,-99.99,,,0.00,weatherlink.com 1.10,2013-12-19 11:28:00,
2013-12-19 06:43:00,26.9,25.0,30.19,SSE,161,0.0,-999.0,91,-99.99,,,0.00,weatherlink.com 1.10,2013-12-19 11:43:00,
2013-12-19 06:58:00,27.2,25.0,30.19,SSE,161,0.0,-999.0,91,-99.99,,,0.00,weatherlink.com 1.10,2013-12-19 11:58:00,
2013-12-19 07:13:00,27.3,25.0,30.20,SSE,161,0.0,-999.0,91,-99.99,,,0.00,weatherlink.com 1.10,2013-12-19 12:13:00,
2013-12-19 07:28:00,27.8,26.0,30.20,SSE,161,0.0,-999.0,92,-99.99,,,0.00,weatherlink.com 1.10,2013-12-19 12:28:00,
2013-12-19 07:43:00,28.2,26.0,30.20,SSE,161,0.0,-999.0,92,-99.99,,,0.00,weatherlink.com 1.10,2013-12-19 12:43:00,
2013-12-19 07:58:00,28.8,26.0,30.20,SSE,161,0.0,-999.0,89,-99.99,,,0.00,weatherlink.com 1.10,2013-12-19 12:58:00,
2013-12-19 08:13:00,30.7,28.0,30.20,SSE,161,0.0,-999.0,90,-99.99,,,0.00,weatherlink.com 1.10,2013-12-19 13:13:00,
2013-12-19 08:28:00,33.4,29.0,30.21,SSE,160,0.0,-999.0,84,-99.99,,,0.00,weatherlink.com 1.10,2013-12-19 13:28:00,
2013-12-19 08:43:00,36.0,30.0,30.21,SSE,160,0.0,-999.0,80,-99.99,,,0.00,weatherlink.com 1.10,2013-12-19 13:43:00,
2013-12-19 08:58:00,39.1,29.0,30.21,SSE,158,0.0,-999.0,67,-99.99,,,0.00,weatherlink.com 1.10,2013-12-19 13:58:00,
2013-12-19 09:14:00,42.2,27.0,30.22,ESE,114,0.0,-999.0,55,-99.99,,,0.00,weatherlink.com 1.10,2013-12-19 14:14:00,
2013-12-19 09:29:00,44.5,28.0,30.22,South,169,0.0,-999.0,52,-99.99,,,0.00,weatherlink.com 1.10,2013-12-19 14:29:00,
2013-12-19 09:44:00,45.8,27.0,30.22,SE,138,0.0,-999.0,48,-99.99,,,0.00,weatherlink.com 1.10,2013-12-19 14:44:00,
2013-12-19 09:59:00,47.1,26.0,30.22,South,181,0.0,-999.0,44,-99.99,,,0.00,weatherlink.com 1.10,2013-12-19 14:59:00,
2013-12-19 10:14:00,48.5,24.0,30.22,ENE,66,1.0,-999.0,38,-99.99,,,0.00,weatherlink.com 1.10,2013-12-19 15:14:00,
2013-12-19 10:29:00,49.5,27.0,30.22,SE,131,0.0,-999.0,42,-99.99,,,0.00,weatherlink.com 1.10,2013-12-19 15:29:00,
2013-12-19 10:44:00,51.0,27.0,30.21,SE,131,0.0,-999.0,39,-99.99,,,0.00,weatherlink.com 1.10,2013-12-19 15:44:00,
2013-12-19 10:59:00,52.0,24.0,30.21,South,185,5.0,-999.0,34,-99.99,,,0.00,weatherlink.com 1.10,2013-12-19 15:59:00,
2013-12-19 11:14:00,52.6,23.0,30.20,SSW,200,0.0,-999.0,32,-99.99,,,0.00,weatherlink.com 1.10,2013-12-19 16:14:00,
2013-12-19 11:29:00,53.2,21.0,30.20,SSW,192,2.0,-999.0,28,-99.99,,,0.00,weatherlink.com 1.10,2013-12-19 16:29:00,
2013-12-19 11:44:00,53.6,22.0,30.19,SSE,162,1.0,-999.0,29,-99.99,,,0.00,weatherlink.com 1.10,2013-12-19 16:44:00,
2013-12-19 11:59:00,54.5,24.0,30.18,WNW,302,0.0,-999.0,31,-99.99,,,0.00,weatherlink.com 1.10,2013-12-19 16:59:00,
2013-12-19 12:14:00,55.7,23.0,30.17,South,169,0.0,-999.0,28,-99.99,,,0.00,weatherlink.com 1.10,2013-12-19 17:14:00,
2013-12-19 12:29:00,56.5,23.0,30.16,SSE,147,0.0,-999.0,27,-99.99,,,0.00,weatherlink.com 1.10,2013-12-19 17:29:00,
2013-12-19 12:44:00,57.0,21.0,30.15,South,186,0.0,-999.0,25,-99.99,,,0.00,weatherlink.com 1.10,2013-12-19 17:44:00,
2013-12-19 12:59:00,57.6,22.0,30.14,South,179,3.0,-999.0,25,-99.99,,,0.00,weatherlink.com 1.10,2013-12-19 17:59:00,
2013-12-19 13:14:00,58.4,23.0,30.14,ENE,78,2.0,-999.0,25,-99.99,,,0.00,weatherlink.com 1.10,2013-12-19 18:14:00,
2013-12-19 13:29:00,58.7,23.0,30.14,SSW,206,0.0,-999.0,25,-99.99,,,0.00,weatherlink.com 1.10,2013-12-19 18:29:00,
2013-12-19 13:44:00,59.5,24.0,30.13,South,179,0.0,-999.0,26,-99.99,,,0.00,weatherlink.com 1.10,2013-12-19 18:44:00,
2013-12-19 14:00:00,60.9,25.0,30.12,SW,223,6.0,-999.0,25,-99.99,,,0.00,weatherlink.com 1.10,2013-12-19 19:00:00,
2013-12-19 14:14:00,60.4,24.0,30.12,South,169,6.0,-999.0,25,-99.99,,,0.00,weatherlink.com 1.10,2013-12-19 19:14:00,
2013-12-19 14:29:00,61.0,25.0,30.11,SSE,161,0.0,-999.0,25,-99.99,,,0.00,weatherlink.com 1.10,2013-12-19 19:29:00,
2013-12-19 14:44:00,62.0,-99.9,30.11,South,176,2.0,-999.0,-999,-99.99,,,0.00,weatherlink.com 1.10,2013-12-19 19:44:00,
2013-12-19 14:59:00,62.6,25.0,30.11,SE,143,0.0,-999.0,24,-99.99,,,0.00,weatherlink.com 1.10,2013-12-19 19:59:00,
2013-12-19 15:15:00,63.1,25.0,30.11,East,100,0.0,-999.0,23,-99.99,,,0.00,weatherlink.com 1.10,2013-12-19 20:15:00,
2013-12-19 15:30:00,62.7,24.0,30.11,East,96,0.0,-999.0,23,-99.99,,,0.00,weatherlink.com 1.10,2013-12-19 20:30:00,
2013-12-19 15:45:00,62.6,24.0,30.11,ENE,76,0.0,-999.0,23,-99.99,,,0.00,weatherlink.com 1.10,2013-12-19 20:45:00,
2013-12-19 16:00:00,62.3,24.0,30.12,South,172,1.0,-999.0,23,-99.99,,,0.00,weatherlink.com 1.10,2013-12-19 21:00:00,
2013-12-19 16:15:00,61.0,23.0,30.12,South,191,0.0,-999.0,23,-99.99,,,0.00,weatherlink.com 1.10,2013-12-19 21:15:00,
2013-12-19 16:30:00,59.3,23.0,30.12,SSW,199,0.0,-999.0,25,-99.99,,,0.00,weatherlink.com 1.10,2013-12-19 21:30:00,
2013-12-19 16:45:00,57.6,24.0,30.12,SSE,154,0.0,-999.0,27,-99.99,,,0.00,weatherlink.com 1.10,2013-12-19 21:45:00,
2013-12-19 17:00:00,56.5,23.0,30.13,SSE,154,0.0,-999.0,27,-99.99,,,0.00,weatherlink.com 1.10,2013-12-19 22:00:00,
2013-12-19 17:15:00,55.3,24.0,30.14,SSE,154,0.0,-999.0,30,-99.99,,,0.00,weatherlink.com 1.10,2013-12-19 22:15:00,
2013-12-19 17:30:00,53.3,25.0,30.14,SSE,154,0.0,-999.0,34,-99.99,,,0.00,weatherlink.com 1.10,2013-12-19 22:30:00,
2013-12-19 17:45:00,51.7,25.0,30.14,SSE,154,0.0,-999.0,35,-99.99,,,0.00,weatherlink.com 1.10,2013-12-19 22:45:00,
2013-12-19 18:00:00,50.5,26.0,30.14,SSE,154,0.0,-999.0,39,-99.99,,,0.00,weatherlink.com 1.10,2013-12-19 23:00:00,
2013-12-19 18:15:00,48.9,27.0,30.14,SSE,154,0.0,-999.0,43,-99.99,,,0.00,weatherlink.com 1.10,2013-12-19 23:15:00,
2013-12-19 18:30:00,47.7,27.0,30.14,SSE,154,0.0,-999.0,45,-99.99,,,0.00,weatherlink.com 1.10,2013-12-19 23:30:00,
2013-12-19 18:45:00,47.1,28.0,30.14,SSE,154,0.0,-999.0,47,-99.99,,,0.00,weatherlink.com 1.10,2013-12-19 23:45:00,
2013-12-19 19:00:00,47.4,28.0,30.14,SSE,154,0.0,-999.0,47,-99.99,,,0.00,weatherlink.com 1.10,2013-12-20 00:00:00,
2013-12-19 19:15:00,46.5,29.0,30.15,SSE,154,0.0,-999.0,50,-99.99,,,0.00,weatherlink.com 1.10,2013-12-20 00:15:00,
2013-12-19 19:30:00,46.0,29.0,30.15,SSE,154,0.0,-999.0,51,-99.99,,,0.00,weatherlink.com 1.10,2013-12-20 00:30:00,
2013-12-19 19:45:00,45.4,30.0,30.15,SSE,154,0.0,-999.0,55,-99.99,,,0.00,weatherlink.com 1.10,2013-12-20 00:45:00,
2013-12-19 20:00:00,44.6,31.0,30.15,SSE,154,0.0,-999.0,59,-99.99,,,0.00,weatherlink.com 1.10,2013-12-20 01:00:00,
2013-12-19 20:15:00,44.1,31.0,30.15,SSE,154,0.0,-999.0,61,-99.99,,,0.00,weatherlink.com 1.10,2013-12-20 01:15:00,
2013-12-19 20:30:00,44.5,30.0,30.15,SSE,154,0.0,-999.0,58,-99.99,,,0.00,weatherlink.com 1.10,2013-12-20 01:30:00,
2013-12-19 20:45:00,46.0,29.0,30.14,SSE,155,0.0,-999.0,52,-99.99,,,0.00,weatherlink.com 1.10,2013-12-20 01:45:00,
2013-12-19 21:00:00,47.1,31.0,30.14,SSE,155,0.0,-999.0,53,-99.99,,,0.00,weatherlink.com 1.10,2013-12-20 02:00:00,
2013-12-19 21:15:00,47.3,29.0,30.14,SE,133,0.0,-999.0,50,-99.99,,,0.00,weatherlink.com 1.10,2013-12-20 02:15:00,
2013-12-19 21:30:00,48.3,29.0,30.14,SE,134,0.0,-999.0,47,-99.99,,,0.00,weatherlink.com 1.10,2013-12-20 02:30:00,
2013-12-19 21:45:00,48.8,29.0,30.13,SE,134,0.0,-999.0,47,-99.99,,,0.00,weatherlink.com 1.10,2013-12-20 02:45:00,
2013-12-19 22:00:00,48.2,30.0,30.14,SE,134,0.0,-999.0,50,-99.99,,,0.00,weatherlink.com 1.10,2013-12-20 03:00:00,
2013-12-19 22:15:00,47.6,30.0,30.13,SE,134,0.0,-999.0,50,-99.99,,,0.00,weatherlink.com 1.10,2013-12-20 03:15:00,
2013-12-19 22:30:00,46.8,30.0,30.13,SE,134,0.0,-999.0,53,-99.99,,,0.00,weatherlink.com 1.10,2013-12-20 03:30:00,
2013-12-19 22:45:00,45.1,31.0,30.13,SE,134,0.0,-999.0,58,-99.99,,,0.00,weatherlink.com 1.10,2013-12-20 03:45:00,
2013-12-19 23:00:00,44.1,30.0,30.13,SE,134,0.0,-999.0,57,-99.99,,,0.00,weatherlink.com 1.10,2013-12-20 04:00:00,
2013-12-19 23:15:00,43.6,29.0,30.12,SE,134,0.0,-999.0,57,-99.99,,,0.00,weatherlink.com 1.10,2013-12-20 04:15:00,
2013-12-19 23:30:00,43.1,30.0,30.12,SE,134,0.0,-999.0,60,-99.99,,,0.00,weatherlink.com 1.10,2013-12-20 04:30:00,
2013-12-19 23:45:00,43.5,30.0,30.11,SE,134,0.0,-999.0,59,-99.99,,,0.00,weatherlink.com 1.10,2013-12-20 04:45:00,